Regional Weather Roundup
Issued by NWS

Home | Current Version | Previous Version | Graphics & Text | Print | Product List | Glossary Off
Versions: 1 2 3 4 5 6 7 8 9 10 11 12 13 14 15 16 17 18 19 20 21 22 23 24 25 26 27 28 29 30 31 32 33 34 35 36 37 38 39 40 41 42 43 44 45 46 47 48 49 50

000
ASUS43 KTOP 231859
RWRKS

WEATHER ROUNDUP FOR KANSAS
NATIONAL WEATHER SERVICE GOODLAND KS
200 PM CDT WED JUL 23 2014

NOTE:  "FAIR" INDICATES FEW OR NO CLOUDS BELOW 12,000 FEET WITH NO
SIGNIFICANT WEATHER AND/OR OBSTRUCTIONS TO VISIBILITY.

KSZ001>006-013>018-027>032-041>047-232000-
NORTHWEST KANSAS

CITY           SKY/WX    TMP DP  RH WIND       PRES   REMARKS
GOODLAND       SUNNY     84  61  45 SE16      30.31F
HAYS           CLOUDY    81  63  54 NE10      30.26F
HILL CITY      CLOUDY    79  64  60 S8        30.23F
RUSSELL        PTSUNNY   84  65  52 NE8G18    30.23F
$$

KSZ061>065-074>080-084>089-232000-
SOUTHWEST KANSAS

CITY           SKY/WX    TMP DP  RH WIND       PRES   REMARKS
DODGE CITY     SUNNY     91  70  49 NE23      30.25R HX  96
ELKHART          N/A     92  64  39 SE10        N/A
GARDEN CITY    PTSUNNY   89  70  53 NE17      30.25F
GREAT BEND     PTSUNNY   88  70  55 N17       30.24R
LIBERAL        MOSUNNY   95  59  30 SE5       30.24S
$$

KSZ066>073-081>083-090>101-232000-
SOUTHEAST KANSAS

CITY           SKY/WX    TMP DP  RH WIND       PRES   REMARKS
CHANUTE        CLOUDY    74  69  85 E8        30.12F
COFFEYVILLE    LGT RAIN  72  71  97 E6        30.15R
HUTCHINSON     MOSUNNY   91  66  43 N12       30.20R
MEDICINE LODGE   N/A     88  75  65 NE9       30.17S HX  97
NEWTON         PTSUNNY   82  63  51 N8        30.22S
PARSONS        LGT RAIN  71  68  90 E5        30.12F
WICHITA INTL   PTSUNNY   82  67  60 N13       30.17R
WICHITA JABRA  CLOUDY    78  67  68 N10       30.18R
WINFIELD       CLOUDY    78  70  76 SE5       30.14F
$$

KSZ007>012-019>026-033>040-048>060-102>105-232000-
NORTHEAST KANSAS

CITY           SKY/WX    TMP DP  RH WIND       PRES   REMARKS
CONCORDIA      CLOUDY    84  64  50 N8        30.23S
EMPORIA        CLOUDY    82  70  66 NE10      30.15R
LAWRENCE       SUNNY     87  67  51 NE13      30.14F
MANHATTAN      PTSUNNY   90  62  39 NE13      30.17R
OLATHE IND     SUNNY     89  63  41 NE16      30.15F
OLATHE EXE     SUNNY     87  63  44 N10G21    30.14F
SALINA         PTSUNNY   88  65  46 N10       30.22R
TOPEKA BILLARD SUNNY     90  63  40 NE16G23   30.14F
TOPEKA FORBES  MOSUNNY   89  62  40 NE16      30.14F
$$


USA.gov is the U.S. government's official web portal to all federal, state and local government web resources and services.